When you browse on this site, cookies collect data to enhance your experience and personalize the content and advertising you see.
Visit our Privacy Policy to learn more. By continuing to use the site, you agree to this use of cookies and data.
  • Em Portugal
  • Lista de países
  • Para 7 dias
  • Temperatura da água
  • Mapa do tempo
  • Widgets de tempo
  • user-avatar
    Iniciar Sessão

    Previsão horária em Marijampolė

    Hoje, 6 Abril, Segunda-feira

    Tempo Temperatura Precipitação Vento Pressão Humidade
    00:00 +5°C° 0 mm 1 m/s 769 mmHg 70%
    01:00 +4°C° 0 mm 2 m/s 769 mmHg 71%
    02:00 +3°C° 0 mm 2 m/s 769 mmHg 72%
    03:00 +3°C° 0 mm 2 m/s 769 mmHg 71%
    04:00 +3°C° 0 mm 2 m/s 769 mmHg 71%
    05:00 +3°C° 0 mm 2 m/s 769 mmHg 70%
    06:00 +4°C° 0 mm 2 m/s 769 mmHg 67%
    07:00 +5°C° 0 mm 2 m/s 769 mmHg 65%
    08:00 +6°C° 0 mm 2 m/s 769 mmHg 62%
    09:00 +8°C° 0 mm 3 m/s 769 mmHg 56%
    10:00 +9°C° 0 mm 3 m/s 769 mmHg 50%
    11:00 +11°C° 0 mm 3 m/s 769 mmHg 45%
    12:00 +12°C° 0 mm 3 m/s 769 mmHg 42%
    13:00 +13°C° 0 mm 3 m/s 769 mmHg 40%
    14:00 +14°C° 0 mm 3 m/s 769 mmHg 38%
    15:00 +14°C° 0 mm 3 m/s 768 mmHg 39%
    16:00 +13°C° 0 mm 3 m/s 768 mmHg 41%
    17:00 +13°C° 0 mm 3 m/s 768 mmHg 42%
    18:00 +12°C° 0 mm 3 m/s 768 mmHg 46%
    19:00 +10°C° 0 mm 3 m/s 767 mmHg 50%
    20:00 +8°C° 0 mm 3 m/s 767 mmHg 55%
    21:00 +7°C° 0 mm 3 m/s 767 mmHg 56%
    22:00 +7°C° 0 mm 3 m/s 768 mmHg 58%
    23:00 +5°C° 0 mm 4 m/s 768 mmHg 60%

    Amanhã, 7 Abril, Terça-feira

    Tempo Temperatura Precipitação Vento Pressão Humidade
    00:00 +5°C° 0 mm 4 m/s 768 mmHg 61%
    01:00 +4°C° 0 mm 4 m/s 767 mmHg 62%
    02:00 +4°C° 0 mm 4 m/s 767 mmHg 63%
    03:00 +4°C° 0 mm 4 m/s 767 mmHg 64%
    04:00 +4°C° 0 mm 4 m/s 767 mmHg 66%
    05:00 +4°C° 0 mm 4 m/s 767 mmHg 67%
    06:00 +5°C° 0 mm 5 m/s 767 mmHg 66%
    07:00 +6°C° 0 mm 5 m/s 766 mmHg 66%
    08:00 +7°C° 0 mm 5 m/s 766 mmHg 65%
    09:00 +9°C° 0 mm 5 m/s 766 mmHg 61%
    10:00 +11°C° 0 mm 6 m/s 766 mmHg 57%
    11:00 +14°C° 0 mm 6 m/s 765 mmHg 52%
    12:00 +15°C° 0 mm 6 m/s 765 mmHg 49%
    13:00 +16°C° 0 mm 6 m/s 765 mmHg 46%
    14:00 +17°C° 0 mm 7 m/s 765 mmHg 42%
    15:00 +17°C° 0 mm 6 m/s 765 mmHg 45%
    16:00 +17°C° 0 mm 5 m/s 764 mmHg 49%
    17:00 +16°C° 0 mm 5 m/s 764 mmHg 52%
    18:00 +15°C° 0 mm 4 m/s 764 mmHg 61%
    19:00 +13°C° 0 mm 4 m/s 764 mmHg 69%
    20:00 +11°C° 0 mm 3 m/s 764 mmHg 78%
    21:00 +10°C° 0 mm 3 m/s 765 mmHg 83%
    22:00 +8°C° 0 mm 3 m/s 765 mmHg 87%
    23:00 +7°C° 0 mm 3 m/s 765 mmHg 92%

    Depois de amanhã, 8 Abril, Quarta-feira

    Tempo Temperatura Precipitação Vento Pressão Humidade
    00:00 +7°C° 0 mm 3 m/s 765 mmHg 93%
    01:00 +5°C° 0 mm 3 m/s 765 mmHg 93%
    02:00 +5°C° 0 mm 2 m/s 766 mmHg 93%
    03:00 +5°C° 0 mm 2 m/s 766 mmHg 92%
    04:00 +5°C° 0 mm 2 m/s 766 mmHg 91%
    05:00 +4°C° 0 mm 2 m/s 766 mmHg 90%
    06:00 +5°C° 0 mm 2 m/s 766 mmHg 86%
    07:00 +7°C° 0 mm 1 m/s 766 mmHg 81%
    08:00 +8°C° 0 mm 1 m/s 766 mmHg 77%
    09:00 +10°C° 0 mm 1 m/s 766 mmHg 71%
    10:00 +12°C° 0 mm 1 m/s 765 mmHg 64%
    11:00 +13°C° 0 mm 1 m/s 765 mmHg 58%
    12:00 +14°C° 0 mm 1 m/s 765 mmHg 54%
    13:00 +15°C° 0 mm 2 m/s 764 mmHg 49%
    14:00 +16°C° 0 mm 2 m/s 764 mmHg 45%
    15:00 +16°C° 0 mm 2 m/s 763 mmHg 45%
    16:00 +16°C° 0 mm 2 m/s 763 mmHg 45%
    17:00 +16°C° 0 mm 1 m/s 762 mmHg 45%
    18:00 +15°C° 0 mm 1 m/s 762 mmHg 50%
    19:00 +13°C° 0 mm 1 m/s 762 mmHg 55%
    20:00 +11°C° 0 mm 1 m/s 761 mmHg 60%
    21:00 +11°C° 0 mm 1 m/s 761 mmHg 61%
    22:00 +9°C° 0 mm 2 m/s 761 mmHg 62%
    23:00 +9°C° 0 mm 2 m/s 760 mmHg 63%

    9 Abril, Quinta-feira

    Tempo Temperatura Precipitação Vento Pressão Humidade
    00:00 +8°C° 0 mm 2 m/s 760 mmHg 63%
    01:00 +8°C° 0 mm 2 m/s 759 mmHg 63%
    02:00 +8°C° 0 mm 3 m/s 759 mmHg 63%
    03:00 +8°C° 0 mm 3 m/s 758 mmHg 67%
    04:00 +9°C° 0 mm 3 m/s 758 mmHg 71%
    05:00 +9°C° 0 mm 3 m/s 758 mmHg 75%
    06:00 +10°C° 0 mm 3 m/s 757 mmHg 74%
    07:00 +11°C° 0 mm 4 m/s 757 mmHg 73%
    08:00 +12°C° 0 mm 4 m/s 756 mmHg 71%
    09:00 +13°C° 0 mm 5 m/s 756 mmHg 64%
    10:00 +15°C° 0 mm 5 m/s 755 mmHg 56%
    11:00 +16°C° 0 mm 6 m/s 755 mmHg 48%
    12:00 +16°C° 0 mm 6 m/s 754 mmHg 49%
    13:00 +16°C° 0 mm 7 m/s 754 mmHg 51%
    14:00 +16°C° 0 mm 7 m/s 754 mmHg 53%
    15:00 +15°C° 0.3 mm 7 m/s 753 mmHg 59%
    16:00 +13°C° 0.3 mm 6 m/s 753 mmHg 66%
    17:00 +10°C° 0.3 mm 6 m/s 753 mmHg 72%
    18:00 +9°C° 0 mm 5 m/s 753 mmHg 74%
    19:00 +9°C° 0 mm 5 m/s 753 mmHg 77%
    20:00 +8°C° 0 mm 5 m/s 753 mmHg 79%
    21:00 +7°C° 0 mm 4 m/s 754 mmHg 80%
    22:00 +6°C° 0 mm 4 m/s 754 mmHg 82%
    23:00 +5°C° 0 mm 4 m/s 754 mmHg 84%

    10 Abril, Sexta-feira

    Tempo Temperatura Precipitação Vento Pressão Humidade
    00:00 +5°C° 0 mm 4 m/s 754 mmHg 86%
    01:00 +4°C° 0 mm 4 m/s 754 mmHg 88%
    02:00 +3°C° 0 mm 4 m/s 754 mmHg 89%
    03:00 +3°C° 0 mm 4 m/s 755 mmHg 90%
    04:00 +3°C° 0 mm 4 m/s 755 mmHg 91%
    05:00 +3°C° 0 mm 4 m/s 755 mmHg 92%
    06:00 +3°C° 0 mm 3 m/s 756 mmHg 86%
    07:00 +3°C° 0 mm 3 m/s 756 mmHg 79%
    08:00 +4°C° 0 mm 3 m/s 757 mmHg 73%
    09:00 +5°C° 0 mm 3 m/s 757 mmHg 64%
    10:00 +7°C° 0 mm 4 m/s 757 mmHg 55%
    11:00 +8°C° 0 mm 4 m/s 757 mmHg 47%
    12:00 +9°C° 0 mm 5 m/s 757 mmHg 47%
    13:00 +9°C° 0 mm 6 m/s 757 mmHg 47%
    14:00 +10°C° 0 mm 7 m/s 757 mmHg 47%
    15:00 +10°C° 0.1 mm 6 m/s 757 mmHg 50%
    16:00 +9°C° 0.1 mm 6 m/s 757 mmHg 53%
    17:00 +8°C° 0.1 mm 6 m/s 757 mmHg 57%
    18:00 +7°C° 0 mm 5 m/s 757 mmHg 57%
    19:00 +5°C° 0 mm 5 m/s 758 mmHg 57%
    20:00 +4°C° 0 mm 4 m/s 758 mmHg 58%
    21:00 +3°C° 0 mm 4 m/s 758 mmHg 60%
    22:00 +2°C° 0 mm 3 m/s 759 mmHg 63%
    23:00 0°C° 0 mm 3 m/s 759 mmHg 66%

    11 Abril, Sábado

    Tempo Temperatura Precipitação Vento Pressão Humidade
    00:00 +1°C° 0 mm 2 m/s 759 mmHg 67%
    01:00 +1°C° 0 mm 2 m/s 759 mmHg 68%
    02:00 +1°C° 0 mm 1 m/s 759 mmHg 69%
    03:00 +1°C° 0 mm 1 m/s 759 mmHg 69%
    04:00 +1°C° 0 mm 1 m/s 759 mmHg 68%
    05:00 -1°C° 0 mm 0 m/s 759 mmHg 68%
    06:00 +1°C° 0 mm 1 m/s 759 mmHg 63%
    07:00 +2°C° 0 mm 1 m/s 758 mmHg 58%
    08:00 +3°C° 0 mm 1 m/s 758 mmHg 52%
    09:00 +3°C° 0 mm 2 m/s 758 mmHg 48%
    10:00 +5°C° 0 mm 2 m/s 757 mmHg 44%
    11:00 +6°C° 0 mm 2 m/s 756 mmHg 40%
    12:00 +7°C° 0 mm 2 m/s 756 mmHg 41%
    13:00 +8°C° 0 mm 3 m/s 755 mmHg 42%
    14:00 +9°C° 0 mm 3 m/s 754 mmHg 43%
    15:00 +10°C° 0 mm 3 m/s 754 mmHg 47%
    16:00 +10°C° 0 mm 2 m/s 753 mmHg 52%
    17:00 +10°C° 0 mm 2 m/s 752 mmHg 56%
    18:00 +9°C° 0 mm 2 m/s 752 mmHg 60%
    19:00 +9°C° 0 mm 2 m/s 751 mmHg 63%
    20:00 +8°C° 0 mm 2 m/s 751 mmHg 67%
    21:00 +8°C° 0 mm 2 m/s 750 mmHg 68%
    22:00 +8°C° 0 mm 2 m/s 750 mmHg 69%
    23:00 +8°C° 0 mm 2 m/s 749 mmHg 70%
    Mostrar mais